EN

Hourly Weather Tres Rios

Today, 20 April, Tuesday

Time Temperature Precipitation Wind Pressure Humidity
00:00 +19°C° 0 mm 1 mps 728 mmHg 98%
01:00 +19°C° 0 mm 1 mps 728 mmHg 98%
02:00 +18°C° 0 mm 2 mps 728 mmHg 98%
03:00 +17°C° 0 mm 2 mps 727 mmHg 98%
04:00 +18°C° 0 mm 1 mps 727 mmHg 98%
05:00 +18°C° 0 mm 1 mps 727 mmHg 97%
06:00 +18°C° 0 mm 1 mps 727 mmHg 97%
07:00 +18°C° 0 mm 2 mps 728 mmHg 91%
08:00 +20°C° 0 mm 2 mps 728 mmHg 86%
09:00 +22°C° 0 mm 3 mps 729 mmHg 81%
10:00 +24°C° 0 mm 3 mps 729 mmHg 73%
11:00 +26°C° 0 mm 4 mps 728 mmHg 64%
12:00 +27°C° 0 mm 4 mps 728 mmHg 56%
13:00 +27°C° 0 mm 4 mps 728 mmHg 56%
14:00 +27°C° 0 mm 4 mps 727 mmHg 56%
15:00 +27°C° 0 mm 4 mps 727 mmHg 56%
16:00 +25°C° 0 mm 3 mps 727 mmHg 65%
17:00 +22°C° 0 mm 3 mps 727 mmHg 74%
18:00 +20°C° 0 mm 2 mps 728 mmHg 83%
19:00 +19°C° 0 mm 2 mps 728 mmHg 88%
20:00 +18°C° 0 mm 2 mps 728 mmHg 92%
21:00 +18°C° 0 mm 2 mps 729 mmHg 96%
22:00 +17°C° 0 mm 2 mps 728 mmHg 97%
23:00 +17°C° 0 mm 2 mps 728 mmHg 97%

Tomorrow, 21 April, Wednesday

Time Temperature Precipitation Wind Pressure Humidity
00:00 +17°C° 0 mm 2 mps 728 mmHg 97%
01:00 +17°C° 0 mm 2 mps 728 mmHg 97%
02:00 +17°C° 0 mm 2 mps 728 mmHg 98%
03:00 +16°C° 0 mm 2 mps 727 mmHg 98%
04:00 +16°C° 0 mm 1 mps 727 mmHg 97%
05:00 +16°C° 0 mm 1 mps 727 mmHg 97%
06:00 +16°C° 0 mm 1 mps 728 mmHg 97%
07:00 +18°C° 0 mm 2 mps 728 mmHg 88%
08:00 +20°C° 0 mm 2 mps 728 mmHg 80%
09:00 +22°C° 0 mm 3 mps 729 mmHg 72%
10:00 +24°C° 0 mm 3 mps 729 mmHg 70%
11:00 +25°C° 0 mm 3 mps 728 mmHg 69%
12:00 +26°C° 0 mm 4 mps 728 mmHg 67%
13:00 +26°C° 0.1 mm 4 mps 728 mmHg 68%
14:00 +26°C° 0.1 mm 4 mps 727 mmHg 69%
15:00 +26°C° 0.1 mm 4 mps 727 mmHg 69%
16:00 +24°C° 0 mm 3 mps 727 mmHg 77%
17:00 +21°C° 0 mm 3 mps 728 mmHg 84%
18:00 +20°C° 0 mm 2 mps 728 mmHg 91%
19:00 +19°C° 0 mm 2 mps 728 mmHg 93%
20:00 +19°C° 0 mm 2 mps 729 mmHg 94%
21:00 +19°C° 0 mm 1 mps 729 mmHg 96%
22:00 +19°C° 0 mm 1 mps 729 mmHg 97%
23:00 +19°C° 0 mm 1 mps 729 mmHg 97%

Day after tomorrow, 22 April, Thursday

Time Temperature Precipitation Wind Pressure Humidity
00:00 +19°C° 0 mm 1 mps 729 mmHg 97%
01:00 +19°C° 0 mm 1 mps 729 mmHg 97%
02:00 +20°C° 0 mm 1 mps 728 mmHg 97%
03:00 +20°C° 0 mm 1 mps 728 mmHg 97%
04:00 +19°C° 0 mm 1 mps 728 mmHg 97%
05:00 +19°C° 0 mm 1 mps 728 mmHg 97%
06:00 +19°C° 0 mm 1 mps 729 mmHg 97%
07:00 +19°C° 0 mm 2 mps 729 mmHg 91%
08:00 +21°C° 0 mm 2 mps 729 mmHg 84%
09:00 +23°C° 0 mm 2 mps 730 mmHg 78%
10:00 +24°C° 0 mm 2 mps 730 mmHg 72%
11:00 +25°C° 0 mm 2 mps 729 mmHg 67%
12:00 +27°C° 0 mm 3 mps 729 mmHg 61%
13:00 +26°C° 0.1 mm 3 mps 728 mmHg 63%
14:00 +26°C° 0.1 mm 3 mps 728 mmHg 65%
15:00 +25°C° 0.1 mm 3 mps 728 mmHg 67%
16:00 +24°C° 0.1 mm 3 mps 728 mmHg 74%
17:00 +21°C° 0.1 mm 2 mps 728 mmHg 80%
18:00 +19°C° 0.1 mm 2 mps 728 mmHg 87%
19:00 +18°C° 0 mm 2 mps 729 mmHg 90%
20:00 +19°C° 0 mm 1 mps 729 mmHg 93%
21:00 +18°C° 0 mm 1 mps 730 mmHg 95%
22:00 +18°C° 0 mm 1 mps 730 mmHg 96%
23:00 +16°C° 0 mm 1 mps 730 mmHg 96%

23 April, Friday

Time Temperature Precipitation Wind Pressure Humidity
00:00 +16°C° 0 mm 1 mps 730 mmHg 96%
01:00 +16°C° 0 mm 1 mps 729 mmHg 96%
02:00 +16°C° 0 mm 1 mps 729 mmHg 96%
03:00 +16°C° 0 mm 1 mps 729 mmHg 96%
04:00 +15°C° 0 mm 1 mps 729 mmHg 96%
05:00 +14°C° 0 mm 0 mps 729 mmHg 96%
06:00 +14°C° 0 mm 0 mps 729 mmHg 96%
07:00 +16°C° 0 mm 0 mps 730 mmHg 89%
08:00 +18°C° 0 mm 0 mps 730 mmHg 82%
09:00 +20°C° 0 mm 0 mps 730 mmHg 75%
10:00 +24°C° 0 mm 1 mps 730 mmHg 70%
11:00 +25°C° 0 mm 1 mps 730 mmHg 64%
12:00 +27°C° 0 mm 1 mps 729 mmHg 59%
13:00 +27°C° 0.1 mm 1 mps 729 mmHg 60%
14:00 +27°C° 0.1 mm 1 mps 728 mmHg 60%
15:00 +27°C° 0.1 mm 1 mps 727 mmHg 61%
16:00 +25°C° 0.1 mm 1 mps 727 mmHg 69%
17:00 +23°C° 0.1 mm 1 mps 727 mmHg 77%
18:00 +22°C° 0.1 mm 1 mps 727 mmHg 85%
19:00 +21°C° 0 mm 1 mps 728 mmHg 88%
20:00 +20°C° 0 mm 1 mps 728 mmHg 91%
21:00 +19°C° 0 mm 1 mps 729 mmHg 95%
22:00 +19°C° 0 mm 1 mps 729 mmHg 93%
23:00 +19°C° 0 mm 1 mps 729 mmHg 92%

24 April, Saturday

Time Temperature Precipitation Wind Pressure Humidity
00:00 +20°C° 0 mm 1 mps 729 mmHg 91%
01:00 +18°C° 0 mm 0 mps 728 mmHg 91%
02:00 +18°C° 0 mm 0 mps 728 mmHg 91%
03:00 +18°C° 0 mm 0 mps 728 mmHg 90%
04:00 +18°C° 0 mm 0 mps 728 mmHg 90%
05:00 +18°C° 0 mm 0 mps 728 mmHg 91%
06:00 +18°C° 0 mm 0 mps 728 mmHg 91%
07:00 +19°C° 0 mm 0 mps 729 mmHg 88%
08:00 +22°C° 0 mm 1 mps 729 mmHg 85%
09:00 +23°C° 0 mm 1 mps 729 mmHg 82%
10:00 +24°C° 0 mm 1 mps 729 mmHg 76%
11:00 +26°C° 0 mm 1 mps 729 mmHg 71%
12:00 +27°C° 0 mm 1 mps 728 mmHg 65%
13:00 +27°C° 0 mm 1 mps 727 mmHg 64%
14:00 +28°C° 0 mm 1 mps 727 mmHg 63%
15:00 +28°C° 0 mm 1 mps 726 mmHg 62%
16:00 +27°C° 0 mm 1 mps 726 mmHg 71%
17:00 +25°C° 0 mm 1 mps 726 mmHg 80%
18:00 +23°C° 0 mm 1 mps 726 mmHg 89%
19:00 +22°C° 0 mm 1 mps 727 mmHg 91%
20:00 +21°C° 0 mm 1 mps 727 mmHg 93%
21:00 +21°C° 0 mm 1 mps 728 mmHg 95%
22:00 +21°C° 0 mm 1 mps 728 mmHg 96%
23:00 +18°C° 0 mm 0 mps 728 mmHg 96%

25 April, Sunday

Time Temperature Precipitation Wind Pressure Humidity
00:00 +18°C° 0 mm 0 mps 728 mmHg 96%
01:00 +18°C° 0 mm 0 mps 727 mmHg 97%
02:00 +18°C° 0 mm 0 mps 727 mmHg 97%
03:00 +18°C° 0 mm 0 mps 727 mmHg 97%
04:00 +17°C° 0 mm 0 mps 727 mmHg 97%
05:00 +17°C° 0 mm 0 mps 727 mmHg 98%
06:00 +17°C° 0 mm 0 mps 727 mmHg 98%
07:00 +21°C° 0 mm 1 mps 728 mmHg 93%
08:00 +23°C° 0 mm 1 mps 728 mmHg 88%
09:00 +24°C° 0 mm 1 mps 728 mmHg 82%
10:00 +26°C° 0 mm 1 mps 728 mmHg 75%
11:00 +28°C° 0 mm 1 mps 728 mmHg 67%
12:00 +29°C° 0 mm 1 mps 727 mmHg 60%
13:00 +30°C° 0 mm 1 mps 727 mmHg 59%
14:00 +30°C° 0 mm 1 mps 726 mmHg 57%
15:00 +30°C° 0 mm 1 mps 726 mmHg 56%
16:00 +28°C° 0.1 mm 1 mps 726 mmHg 66%
17:00 +26°C° 0.1 mm 1 mps 726 mmHg 75%
18:00 +23°C° 0.1 mm 1 mps 726 mmHg 85%
19:00 +23°C° 0.3 mm 1 mps 726 mmHg 88%
20:00 +22°C° 0.3 mm 1 mps 727 mmHg 91%
21:00 +21°C° 0.3 mm 1 mps 727 mmHg 94%
22:00 +21°C° 0.3 mm 1 mps 727 mmHg 95%
23:00 +21°C° 0.3 mm 1 mps 727 mmHg 96%
Show more

We Need Your Consent

Meteoprog and our Service Providers may store and access personal data such as cookies, device identifiers or other similar technologies on your device and process such data to personalise content and ads, as well as provide social media features and to analyse the traffic.

  • Store and/or access information on your device

    Cookies, device identifiers or other information can be stored or accessed on your device for the purposes indicated above.

  • Personalised ads and content, ad and content measurement, audience insights, and products development

    Ads and content can be personalised based on a profile. More data can be added to better personalise ads and content. Ad and content performance can be measured. Insights about the audience who saw the ads and content can be derived. Such data can be used to develop or improve user’s experience, systems and software.

By clicking ‘I Agree’ you will allow the use of indicated cookies, device identifiers, web beacons or other similar technologies. Your settings can be changed in the browser on your device.

For certain purposes, legitimate interests may be relied on, rather than consent. You can read more about this in our Privacy and Cookie Policy.